| time (UTC) | temp F | wind direction | speed MPH | gust MPH | rain 1hr in | rain 24hr in | rain mn in | humidity % | barometer mb |
| 20260904210004 | 62 | 183 | 2.0 | 11.0 | 0.02 | 0.18 | 0.14 | 78 | 1011.6 |
| 20260904205524 | 63 | 186 | 3.0 | 11.0 | 0.00 | 0.16 | 0.12 | 73 | 1011.5 |
| 20260904205003 | 64 | 198 | 3.0 | 10.0 | 0.00 | 0.16 | 0.12 | 69 | 1011.3 |
| 20260904204503 | 64 | 213 | 3.0 | 9.0 | 0.00 | 0.16 | 0.12 | 67 | 1011.2 |
| 20260904204024 | 65 | 207 | 3.0 | 9.0 | 0.00 | 0.16 | 0.12 | 65 | 1011.1 |
| 20260904203503 | 66 | 204 | 3.0 | 8.0 | 0.00 | 0.16 | 0.12 | 63 | 1011.1 |
| 20260904203003 | 66 | 231 | 3.0 | 7.0 | 0.00 | 0.16 | 0.12 | 63 | 1011.1 |
| 20260904202503 | 67 | 238 | 2.0 | 5.0 | 0.00 | 0.16 | 0.12 | 61 | 1011.1 |
| 20260904202003 | 68 | 226 | 1.0 | 4.0 | 0.00 | 0.16 | 0.12 | 60 | 1011.0 |
| 20260904201503 | 68 | 245 | 2.0 | 6.0 | 0.00 | 0.16 | 0.12 | 60 | 1010.9 |
| 20260904201003 | 68 | 271 | 2.0 | 6.0 | 0.00 | 0.16 | 0.12 | 61 | 1010.9 |
| 20260904200524 | 68 | 269 | 1.0 | 5.0 | 0.00 | 0.16 | 0.12 | 61 | 1010.9 |
| 20260904200003 | 68 | 246 | 1.0 | 4.0 | 0.00 | 0.16 | 0.12 | 62 | 1010.9 |
| 20260904195524 | 67 | 257 | 1.0 | 3.0 | 0.00 | 0.16 | 0.12 | 62 | 1010.9 |
| 20260904195003 | 67 | 241 | 1.0 | 5.0 | 0.00 | 0.16 | 0.12 | 63 | 1010.9 |
| 20260904194524 | 67 | 259 | 1.0 | 5.0 | 0.00 | 0.16 | 0.12 | 64 | 1011.0 |
| 20260904194003 | 66 | 274 | 2.0 | 5.0 | 0.00 | 0.16 | 0.12 | 65 | 1011.1 |
| 20260904193503 | 66 | 285 | 1.0 | 5.0 | 0.00 | 0.16 | 0.12 | 65 | 1011.1 |
| 20260904193003 | 66 | 325 | 1.0 | 4.0 | 0.00 | 0.16 | 0.12 | 65 | 1011.1 |
| 20260904192503 | 66 | 324 | 1.0 | 4.0 | 0.00 | 0.16 | 0.12 | 66 | 1011.1 |
| 20260904192003 | 66 | 291 | 1.0 | 4.0 | 0.00 | 0.16 | 0.12 | 70 | 1011.2 |
| 20260904191503 | 66 | 278 | 1.0 | 3.0 | 0.00 | 0.16 | 0.12 | 69 | 1011.2 |
| 20260904191024 | 67 | 0 | 0.0 | 0.0 | 0.00 | 0.16 | 0.12 | 65 | 1011.2 |
| 20260904190503 | 67 | 0 | 0.0 | 0.0 | 0.00 | 0.16 | 0.12 | 65 | 1011.2 |
| 20260904190003 | 67 | 0 | 0.0 | 0.0 | 0.00 | 0.16 | 0.12 | 66 | 1011.2 |
| 20260904185503 | 67 | 0 | 0.0 | 0.0 | 0.00 | 0.16 | 0.12 | 66 | 1011.2 |
| 20260904185003 | 66 | 0 | 0.0 | 0.0 | 0.00 | 0.16 | 0.12 | 70 | 1011.2 |
| 20260904184503 | 66 | 0 | 0.0 | 0.0 | 0.00 | 0.17 | 0.12 | 67 | 1011.3 |
| 20260904184003 | 65 | 0 | 0.0 | 0.0 | 0.00 | 0.17 | 0.12 | 69 | 1011.2 |
| 20260904183503 | 65 | 0 | 0.0 | 0.0 | 0.00 | 0.18 | 0.12 | 71 | 1011.2 |
| 20260904183005 | 64 | 0 | 0.0 | 0.0 | 0.00 | 0.19 | 0.12 | 73 | 1011.1 |
| 20260904182503 | 64 | 0 | 0.0 | 0.0 | 0.00 | 0.19 | 0.12 | 72 | 1011.0 |
| 20260904182003 | 63 | 0 | 0.0 | 0.0 | 0.00 | 0.20 | 0.12 | 78 | 1011.0 |
| 20260904181503 | 63 | 299 | 0.0 | 2.0 | 0.00 | 0.20 | 0.12 | 79 | 1011.0 |
| 20260904181003 | 62 | 321 | 1.0 | 3.0 | 0.00 | 0.20 | 0.12 | 81 | 1010.9 |
| 20260904180503 | 62 | 333 | 1.0 | 5.0 | 0.00 | 0.20 | 0.12 | 84 | 1011.0 |
| 20260904180003 | 62 | 334 | 2.0 | 5.0 | 0.00 | 0.20 | 0.12 | 82 | 1011.0 |
| 20260904175503 | 62 | 326 | 2.0 | 6.0 | 0.00 | 0.20 | 0.12 | 82 | 1011.0 |
| 20260904175003 | 62 | 325 | 1.0 | 6.0 | 0.00 | 0.20 | 0.12 | 83 | 1011.0 |
| 20260904174503 | 62 | 330 | 1.0 | 5.0 | 0.00 | 0.20 | 0.12 | 85 | 1010.9 |
| 20260904174003 | 61 | 330 | 1.0 | 5.0 | 0.00 | 0.20 | 0.12 | 84 | 1010.9 |
| 20260904173503 | 61 | 332 | 1.0 | 5.0 | 0.00 | 0.20 | 0.12 | 85 | 1010.9 |
| 20260904173003 | 60 | 342 | 0.0 | 4.0 | 0.00 | 0.20 | 0.12 | 88 | 1010.9 |
| 20260904172503 | 60 | 28 | 0.0 | 2.0 | 0.00 | 0.20 | 0.12 | 89 | 1010.8 |
| 20260904172024 | 60 | 29 | 0.0 | 2.0 | 0.00 | 0.20 | 0.12 | 89 | 1010.8 |
| 20260904171503 | 59 | 356 | 0.0 | 2.0 | 0.00 | 0.20 | 0.12 | 90 | 1010.8 |
| 20260904171003 | 59 | 348 | 1.0 | 3.0 | 0.00 | 0.20 | 0.12 | 91 | 1010.8 |
| 20260904170503 | 58 | 347 | 0.0 | 3.0 | 0.00 | 0.20 | 0.12 | 93 | 1010.7 |
| 20260904170003 | 58 | 339 | 0.0 | 3.0 | 0.00 | 0.20 | 0.12 | 94 | 1010.7 |
| 20260904165503 | 58 | 0 | 0.0 | 0.0 | 0.00 | 0.20 | 0.12 | 95 | 1010.6 |
| 20260904165003 | 58 | 0 | 0.0 | 0.0 | 0.00 | 0.20 | 0.12 | 95 | 1010.7 |
| 20260904164503 | 57 | 0 | 0.0 | 0.0 | 0.00 | 0.20 | 0.12 | 96 | 1010.7 |
| 20260904164003 | 57 | 0 | 0.0 | 0.0 | 0.00 | 0.20 | 0.12 | 96 | 1010.6 |
| 20260904163503 | 57 | 0 | 0.0 | 0.0 | 0.00 | 0.20 | 0.12 | 95 | 1010.6 |
| 20260904163003 | 56 | 0 | 0.0 | 0.0 | 0.00 | 0.20 | 0.12 | 96 | 1010.6 |
| 20260904162524 | 56 | 0 | 0.0 | 0.0 | 0.00 | 0.20 | 0.12 | 96 | 1010.6 |
| 20260904162024 | 56 | 0 | 0.0 | 0.0 | 0.01 | 0.20 | 0.12 | 96 | 1010.6 |
| 20260904161503 | 55 | 0 | 0.0 | 0.0 | 0.02 | 0.20 | 0.12 | 96 | 1010.6 |
| 20260904161003 | 55 | 0 | 0.0 | 0.0 | 0.03 | 0.20 | 0.12 | 95 | 1010.6 |
| 20260904160524 | 55 | 0 | 0.0 | 0.0 | 0.04 | 0.20 | 0.12 | 95 | 1010.6 |
| 20260904160003 | 55 | 0 | 0.0 | 0.0 | 0.04 | 0.20 | 0.12 | 95 | 1010.5 |
| 20260904155503 | 54 | 58 | 0.0 | 1.0 | 0.05 | 0.20 | 0.12 | 95 | 1010.5 |
| 20260904155003 | 54 | 58 | 0.0 | 1.0 | 0.06 | 0.20 | 0.12 | 95 | 1010.5 |
| 20260904154503 | 54 | 0 | 0.0 | 0.0 | 0.06 | 0.20 | 0.12 | 95 | 1010.5 |
| 20260904154003 | 54 | 355 | 0.0 | 1.0 | 0.06 | 0.20 | 0.12 | 95 | 1010.5 |
| 20260904153503 | 54 | 355 | 0.0 | 1.0 | 0.06 | 0.20 | 0.12 | 95 | 1010.5 |
| 20260904153003 | 53 | 0 | 0.0 | 0.0 | 0.06 | 0.20 | 0.12 | 95 | 1010.4 |
| 20260904152503 | 53 | 0 | 0.0 | 0.0 | 0.06 | 0.20 | 0.12 | 95 | 1010.4 |
| 20260904152003 | 53 | 0 | 0.0 | 0.0 | 0.05 | 0.20 | 0.11 | 95 | 1010.4 |
| 20260904151503 | 53 | 0 | 0.0 | 0.0 | 0.04 | 0.19 | 0.10 | 95 | 1010.4 |
| 20260904151003 | 53 | 0 | 0.0 | 0.0 | 0.03 | 0.18 | 0.09 | 95 | 1010.4 |
| 20260904150503 | 53 | 0 | 0.0 | 0.0 | 0.02 | 0.18 | 0.08 | 95 | 1010.3 |
| 20260904150025 | 53 | 0 | 0.0 | 0.0 | 0.02 | 0.19 | 0.08 | 95 | 1010.2 |
| 20260904145503 | 53 | 0 | 0.0 | 0.0 | 0.01 | 0.18 | 0.07 | 94 | 1010.2 |
| 20260904145003 | 53 | 0 | 0.0 | 0.0 | 0.00 | 0.18 | 0.06 | 95 | 1010.2 |
| 20260904144524 | 53 | 0 | 0.0 | 0.0 | 0.00 | 0.18 | 0.06 | 95 | 1010.1 |
| 20260904144024 | 53 | 0 | 0.0 | 0.0 | 0.00 | 0.19 | 0.06 | 95 | 1010.1 |
| 20260904143503 | 53 | 0 | 0.0 | 0.0 | 0.00 | 0.19 | 0.06 | 95 | 1010.0 |
| 20260904143003 | 53 | 0 | 0.0 | 0.0 | 0.00 | 0.20 | 0.06 | 95 | 1009.9 |
| 20260904142524 | 53 | 0 | 0.0 | 0.0 | 0.00 | 0.21 | 0.06 | 95 | 1009.9 |
| 20260904142004 | 53 | 0 | 0.0 | 0.0 | 0.00 | 0.22 | 0.06 | 95 | 1009.9 |
| 20260904141503 | 53 | 0 | 0.0 | 0.0 | 0.00 | 0.22 | 0.06 | 95 | 1009.8 |
| 20260904141003 | 53 | 0 | 0.0 | 0.0 | 0.00 | 0.22 | 0.06 | 94 | 1009.6 |
| 20260904140503 | 53 | 0 | 0.0 | 0.0 | 0.00 | 0.22 | 0.06 | 94 | 1009.6 |
| 20260904140003 | 53 | 0 | 0.0 | 0.0 | 0.00 | 0.23 | 0.06 | 94 | 1009.6 |
| 20260904135503 | 53 | 0 | 0.0 | 0.0 | 0.00 | 0.23 | 0.06 | 94 | 1009.5 |
| 20260904135003 | 53 | 0 | 0.0 | 0.0 | 0.00 | 0.23 | 0.06 | 94 | 1009.5 |
| 20260904134503 | 52 | 0 | 0.0 | 0.0 | 0.00 | 0.23 | 0.06 | 94 | 1009.5 |
| 20260904134003 | 52 | 0 | 0.0 | 0.0 | 0.00 | 0.23 | 0.06 | 94 | 1009.4 |
| 20260904133524 | 52 | 0 | 0.0 | 0.0 | 0.00 | 0.23 | 0.06 | 94 | 1009.4 |
| 20260904133003 | 52 | 0 | 0.0 | 0.0 | 0.00 | 0.23 | 0.06 | 94 | 1009.3 |
| 20260904132503 | 52 | 0 | 0.0 | 0.0 | 0.00 | 0.23 | 0.06 | 94 | 1009.3 |
| 20260904132003 | 52 | 0 | 0.0 | 0.0 | 0.00 | 0.23 | 0.06 | 94 | 1009.2 |
| 20260904131503 | 52 | 0 | 0.0 | 0.0 | 0.00 | 0.23 | 0.06 | 94 | 1009.2 |
| 20260904131003 | 52 | 0 | 0.0 | 0.0 | 0.00 | 0.23 | 0.06 | 94 | 1009.2 |
| 20260904130503 | 52 | 0 | 0.0 | 0.0 | 0.00 | 0.23 | 0.06 | 94 | 1009.1 |
| 20260904130003 | 52 | 0 | 0.0 | 0.0 | 0.00 | 0.23 | 0.06 | 94 | 1009.1 |
| 20260904125503 | 52 | 0 | 0.0 | 0.0 | 0.00 | 0.23 | 0.06 | 94 | 1009.1 |
| 20260904125003 | 52 | 0 | 0.0 | 0.0 | 0.00 | 0.23 | 0.06 | 94 | 1009.2 |
| 20260904124503 | 53 | 0 | 0.0 | 0.0 | 0.00 | 0.23 | 0.06 | 94 | 1009.1 |
| 20260904124003 | 52 | 0 | 0.0 | 0.0 | 0.00 | 0.23 | 0.06 | 94 | 1009.2 |
| 20260904123503 | 53 | 0 | 0.0 | 0.0 | 0.00 | 0.23 | 0.06 | 94 | 1009.1 |
| 20260904123003 | 53 | 0 | 0.0 | 0.0 | 0.00 | 0.23 | 0.06 | 94 | 1009.0 |
| 20260904122503 | 53 | 0 | 0.0 | 0.0 | 0.01 | 0.23 | 0.06 | 94 | 1009.0 |
| 20260904122003 | 53 | 0 | 0.0 | 0.0 | 0.01 | 0.23 | 0.06 | 94 | 1009.0 |
| 20260904121503 | 53 | 0 | 0.0 | 0.0 | 0.02 | 0.23 | 0.06 | 94 | 1008.9 |
| 20260904121024 | 53 | 0 | 0.0 | 0.0 | 0.02 | 0.23 | 0.06 | 94 | 1008.9 |
| 20260904120503 | 53 | 0 | 0.0 | 0.0 | 0.03 | 0.23 | 0.06 | 93 | 1008.9 |
| 20260904120003 | 53 | 0 | 0.0 | 0.0 | 0.03 | 0.23 | 0.06 | 93 | 1008.7 |
| 20260904115503 | 53 | 0 | 0.0 | 0.0 | 0.03 | 0.23 | 0.06 | 93 | 1008.7 |
| 20260904115003 | 53 | 0 | 0.0 | 0.0 | 0.04 | 0.23 | 0.06 | 93 | 1008.7 |
| 20260904114503 | 53 | 0 | 0.0 | 0.0 | 0.04 | 0.23 | 0.06 | 93 | 1008.7 |
| 20260904114024 | 53 | 0 | 0.0 | 0.0 | 0.04 | 0.23 | 0.06 | 93 | 1008.6 |
| 20260904113503 | 53 | 0 | 0.0 | 0.0 | 0.04 | 0.23 | 0.06 | 93 | 1008.6 |
| 20260904113024 | 53 | 0 | 0.0 | 0.0 | 0.05 | 0.23 | 0.06 | 93 | 1008.6 |
| 20260904112503 | 53 | 0 | 0.0 | 0.0 | 0.04 | 0.22 | 0.05 | 93 | 1008.6 |
| 20260904112003 | 53 | 0 | 0.0 | 0.0 | 0.05 | 0.22 | 0.05 | 93 | 1008.6 |
| 20260904111524 | 53 | 0 | 0.0 | 0.0 | 0.04 | 0.21 | 0.04 | 93 | 1008.5 |
| 20260904111003 | 53 | 0 | 0.0 | 0.0 | 0.04 | 0.21 | 0.04 | 93 | 1008.6 |
| 20260904110503 | 53 | 0 | 0.0 | 0.0 | 0.03 | 0.20 | 0.03 | 93 | 1008.5 |
| 20260904110003 | 53 | 0 | 0.0 | 0.0 | 0.03 | 0.20 | 0.03 | 93 | 1008.5 |
| 20260904105503 | 54 | 0 | 0.0 | 0.0 | 0.03 | 0.20 | 0.03 | 93 | 1008.5 |
| 20260904105003 | 54 | 0 | 0.0 | 0.0 | 0.02 | 0.19 | 0.02 | 93 | 1008.5 |
| 20260904104503 | 54 | 0 | 0.0 | 0.0 | 0.02 | 0.19 | 0.02 | 92 | 1008.5 |
| 20260904104003 | 54 | 0 | 0.0 | 0.0 | 0.02 | 0.19 | 0.02 | 92 | 1008.5 |
| 20260904103524 | 54 | 0 | 0.0 | 0.0 | 0.02 | 0.19 | 0.02 | 92 | 1008.5 |
| 20260904103003 | 54 | 0 | 0.0 | 0.0 | 0.01 | 0.18 | 0.01 | 92 | 1008.5 |
| 20260904102503 | 54 | 0 | 0.0 | 0.0 | 0.01 | 0.18 | 0.01 | 92 | 1008.5 |
| 20260904102024 | 54 | 0 | 0.0 | 0.0 | 0.00 | 0.17 | 0.00 | 92 | 1008.5 |
| 20260904101503 | 54 | 0 | 0.0 | 0.0 | 0.00 | 0.17 | 0.00 | 92 | 1008.5 |
| 20260904101003 | 54 | 0 | 0.0 | 0.0 | 0.00 | 0.17 | 0.00 | 92 | 1008.4 |
| 20260904100503 | 54 | 0 | 0.0 | 0.0 | 0.00 | 0.17 | 0.00 | 92 | 1008.4 |
| 20260904100024 | 54 | 0 | 0.0 | 0.0 | 0.00 | 0.17 | 0.00 | 92 | 1008.3 |
| 20260904095503 | 54 | 0 | 0.0 | 0.0 | 0.00 | 0.17 | 0.00 | 92 | 1008.3 |
| 20260904095024 | 54 | 0 | 0.0 | 0.0 | 0.00 | 0.17 | 0.00 | 92 | 1008.3 |
| 20260904094503 | 54 | 0 | 0.0 | 0.0 | 0.00 | 0.17 | 0.00 | 92 | 1008.2 |
| 20260904094003 | 54 | 0 | 0.0 | 0.0 | 0.00 | 0.17 | 0.00 | 92 | 1008.2 |
| 20260904093503 | 54 | 0 | 0.0 | 0.0 | 0.00 | 0.17 | 0.00 | 92 | 1008.1 |
| 20260904093003 | 54 | 0 | 0.0 | 0.0 | 0.00 | 0.17 | 0.00 | 91 | 1008.1 |
| 20260904092524 | 54 | 0 | 0.0 | 0.0 | 0.00 | 0.17 | 0.00 | 91 | 1008.1 |
| 20260904092024 | 54 | 0 | 0.0 | 0.0 | 0.00 | 0.17 | 0.00 | 91 | 1008.1 |
| 20260904091503 | 54 | 0 | 0.0 | 0.0 | 0.00 | 0.17 | 0.00 | 91 | 1008.1 |
| 20260904091003 | 54 | 0 | 0.0 | 0.0 | 0.00 | 0.17 | 0.00 | 90 | 1008.1 |
| 20260904090524 | 54 | 0 | 0.0 | 0.0 | 0.00 | 0.17 | 0.00 | 90 | 1008.1 |
| 20260904090003 | 54 | 0 | 0.0 | 0.0 | 0.00 | 0.17 | 0.00 | 91 | 1008.1 |
| 20260904085524 | 54 | 0 | 0.0 | 0.0 | 0.00 | 0.17 | 0.00 | 91 | 1008.1 |
| 20260904085003 | 54 | 0 | 0.0 | 0.0 | 0.00 | 0.17 | 0.00 | 91 | 1008.1 |
| 20260904084503 | 54 | 0 | 0.0 | 0.0 | 0.00 | 0.18 | 0.00 | 91 | 1008.1 |
| 20260904084003 | 55 | 0 | 0.0 | 0.0 | 0.00 | 0.19 | 0.00 | 91 | 1008.1 |
| 20260904083503 | 55 | 0 | 0.0 | 0.0 | 0.00 | 0.19 | 0.00 | 91 | 1008.1 |
| 20260904083003 | 55 | 0 | 0.0 | 0.0 | 0.00 | 0.19 | 0.00 | 91 | 1008.1 |
| 20260904082503 | 55 | 0 | 0.0 | 0.0 | 0.00 | 0.19 | 0.00 | 92 | 1008.1 |
| 20260904082003 | 55 | 0 | 0.0 | 0.0 | 0.00 | 0.19 | 0.00 | 92 | 1008.1 |
| 20260904081503 | 55 | 0 | 0.0 | 0.0 | 0.00 | 0.19 | 0.00 | 92 | 1008.1 |
| 20260904081003 | 55 | 0 | 0.0 | 0.0 | 0.00 | 0.19 | 0.00 | 92 | 1008.1 |
| 20260904080503 | 55 | 0 | 0.0 | 0.0 | 0.00 | 0.19 | 0.00 | 92 | 1008.1 |
| 20260904080003 | 55 | 0 | 0.0 | 0.0 | 0.00 | 0.19 | 0.00 | 92 | 1008.1 |
| 20260904075524 | 55 | 0 | 0.0 | 0.0 | 0.00 | 0.19 | 0.00 | 92 | 1008.2 |
| 20260904075003 | 55 | 0 | 0.0 | 0.0 | 0.00 | 0.19 | 0.00 | 92 | 1008.2 |
| 20260904074503 | 55 | 0 | 0.0 | 0.0 | 0.00 | 0.19 | 0.00 | 92 | 1008.2 |
| 20260904074003 | 55 | 0 | 0.0 | 0.0 | 0.00 | 0.19 | 0.00 | 92 | 1008.2 |
| 20260904073503 | 55 | 0 | 0.0 | 0.0 | 0.00 | 0.19 | 0.00 | 92 | 1008.2 |
| 20260904073003 | 55 | 0 | 0.0 | 0.0 | 0.00 | 0.19 | 0.00 | 92 | 1008.2 |
| 20260904072503 | 55 | 0 | 0.0 | 0.0 | 0.00 | 0.19 | 0.00 | 92 | 1008.2 |
| 20260904072024 | 55 | 0 | 0.0 | 0.0 | 0.00 | 0.19 | 0.00 | 92 | 1008.2 |
| 20260904071503 | 56 | 0 | 0.0 | 0.0 | 0.00 | 0.19 | 0.00 | 92 | 1008.2 |
| 20260904071003 | 56 | 0 | 0.0 | 0.0 | 0.00 | 0.20 | 0.00 | 92 | 1008.1 |
| 20260904070503 | 56 | 0 | 0.0 | 0.0 | 0.00 | 0.20 | 0.00 | 92 | 1008.1 |
| 20260904070004 | 56 | 0 | 0.0 | 0.0 | 0.00 | 0.20 | 0.00 | 92 | 1008.0 |
| 20260904065503 | 56 | 0 | 0.0 | 0.0 | 0.00 | 0.20 | 0.20 | 92 | 1008.0 |
| 20260904065024 | 56 | 0 | 0.0 | 0.0 | 0.00 | 0.20 | 0.20 | 92 | 1008.1 |
| 20260904064524 | 56 | 0 | 0.0 | 0.0 | 0.00 | 0.21 | 0.20 | 92 | 1008.0 |
| 20260904064003 | 56 | 0 | 0.0 | 0.0 | 0.00 | 0.21 | 0.20 | 92 | 1008.0 |
| 20260904063503 | 56 | 0 | 0.0 | 0.0 | 0.00 | 0.21 | 0.20 | 92 | 1008.1 |
| 20260904063003 | 55 | 0 | 0.0 | 0.0 | 0.00 | 0.21 | 0.20 | 92 | 1008.0 |
| 20260904062503 | 55 | 0 | 0.0 | 0.0 | 0.00 | 0.22 | 0.20 | 92 | 1008.0 |
| 20260904062003 | 55 | 0 | 0.0 | 0.0 | 0.00 | 0.23 | 0.20 | 91 | 1008.0 |
| 20260904061503 | 55 | 0 | 0.0 | 0.0 | 0.00 | 0.24 | 0.20 | 91 | 1008.0 |
| 20260904061003 | 55 | 0 | 0.0 | 0.0 | 0.00 | 0.24 | 0.20 | 91 | 1008.0 |
| 20260904060503 | 55 | 0 | 0.0 | 0.0 | 0.00 | 0.25 | 0.20 | 91 | 1008.1 |
| 20260904060003 | 55 | 0 | 0.0 | 0.0 | 0.00 | 0.25 | 0.20 | 91 | 1008.0 |
| 20260904055503 | 55 | 0 | 0.0 | 0.0 | 0.00 | 0.25 | 0.20 | 90 | 1008.1 |
| 20260904055003 | 56 | 0 | 0.0 | 0.0 | 0.00 | 0.25 | 0.20 | 90 | 1008.0 |
| 20260904054503 | 56 | 0 | 0.0 | 0.0 | 0.00 | 0.25 | 0.20 | 90 | 1008.1 |
| 20260904054003 | 56 | 0 | 0.0 | 0.0 | 0.00 | 0.25 | 0.20 | 90 | 1008.0 |
| 20260904053503 | 56 | 0 | 0.0 | 0.0 | 0.00 | 0.25 | 0.20 | 90 | 1008.0 |
| 20260904053003 | 56 | 0 | 0.0 | 0.0 | 0.00 | 0.25 | 0.20 | 90 | 1008.0 |
| 20260904052503 | 56 | 0 | 0.0 | 0.0 | 0.00 | 0.25 | 0.20 | 90 | 1008.0 |
| 20260904052003 | 56 | 0 | 0.0 | 0.0 | 0.00 | 0.25 | 0.20 | 90 | 1008.1 |
| 20260904051524 | 56 | 0 | 0.0 | 0.0 | 0.00 | 0.25 | 0.20 | 90 | 1008.1 |
| 20260904051003 | 56 | 0 | 0.0 | 0.0 | 0.00 | 0.25 | 0.20 | 90 | 1008.2 |
| 20260904050503 | 56 | 0 | 0.0 | 0.0 | 0.00 | 0.25 | 0.20 | 90 | 1008.2 |
| 20260904050003 | 56 | 0 | 0.0 | 0.0 | 0.00 | 0.25 | 0.20 | 90 | 1008.3 |
| 20260904045503 | 56 | 0 | 0.0 | 0.0 | 0.00 | 0.25 | 0.20 | 89 | 1008.2 |
| 20260904045003 | 56 | 0 | 0.0 | 0.0 | 0.00 | 0.25 | 0.20 | 89 | 1008.3 |
| 20260904044503 | 56 | 0 | 0.0 | 0.0 | 0.00 | 0.25 | 0.20 | 89 | 1008.3 |
| 20260904044003 | 56 | 0 | 0.0 | 0.0 | 0.00 | 0.25 | 0.20 | 89 | 1008.3 |
| 20260904043503 | 56 | 0 | 0.0 | 0.0 | 0.00 | 0.25 | 0.20 | 90 | 1008.3 |
| 20260904043003 | 56 | 0 | 0.0 | 0.0 | 0.00 | 0.25 | 0.20 | 90 | 1008.3 |
| 20260904042503 | 56 | 0 | 0.0 | 0.0 | 0.00 | 0.25 | 0.20 | 90 | 1008.4 |
| 20260904042003 | 56 | 0 | 0.0 | 0.0 | 0.00 | 0.25 | 0.20 | 90 | 1008.4 |
| 20260904041503 | 56 | 0 | 0.0 | 0.0 | 0.00 | 0.25 | 0.20 | 91 | 1008.3 |
| 20260904041024 | 56 | 0 | 0.0 | 0.0 | 0.00 | 0.25 | 0.20 | 91 | 1008.4 |
| 20260904040524 | 56 | 0 | 0.0 | 0.0 | 0.00 | 0.25 | 0.20 | 91 | 1008.4 |
| 20260904040003 | 56 | 0 | 0.0 | 0.0 | 0.00 | 0.25 | 0.20 | 91 | 1008.3 |
| 20260904035503 | 56 | 0 | 0.0 | 0.0 | 0.00 | 0.25 | 0.20 | 91 | 1008.3 |
| 20260904035003 | 56 | 0 | 0.0 | 0.0 | 0.00 | 0.25 | 0.20 | 91 | 1008.2 |
| 20260904034503 | 56 | 0 | 0.0 | 0.0 | 0.00 | 0.25 | 0.20 | 91 | 1008.2 |
| 20260904034003 | 56 | 0 | 0.0 | 0.0 | 0.00 | 0.25 | 0.20 | 91 | 1008.1 |
| 20260904033524 | 57 | 0 | 0.0 | 0.0 | 0.00 | 0.25 | 0.20 | 91 | 1008.0 |
| 20260904033003 | 57 | 0 | 0.0 | 0.0 | 0.00 | 0.25 | 0.20 | 91 | 1008.0 |
| 20260904032503 | 57 | 0 | 0.0 | 0.0 | 0.00 | 0.25 | 0.20 | 91 | 1007.9 |
| 20260904032003 | 57 | 0 | 0.0 | 0.0 | 0.00 | 0.25 | 0.20 | 91 | 1007.8 |
| 20260904031503 | 57 | 0 | 0.0 | 0.0 | 0.00 | 0.25 | 0.20 | 90 | 1007.8 |
| 20260904031003 | 57 | 0 | 0.0 | 0.0 | 0.00 | 0.25 | 0.20 | 90 | 1007.8 |
| 20260904030503 | 57 | 0 | 0.0 | 0.0 | 0.00 | 0.25 | 0.20 | 90 | 1007.8 |
| 20260904030003 | 57 | 0 | 0.0 | 0.0 | 0.00 | 0.25 | 0.20 | 90 | 1007.8 |
| 20260904025504 | 57 | 0 | 0.0 | 0.0 | 0.00 | 0.25 | 0.20 | 90 | 1007.7 |
| 20260904025024 | 57 | 0 | 0.0 | 0.0 | 0.00 | 0.25 | 0.20 | 90 | 1007.7 |
| 20260904024503 | 57 | 0 | 0.0 | 0.0 | 0.00 | 0.25 | 0.20 | 90 | 1007.7 |
| 20260904024003 | 58 | 0 | 0.0 | 0.0 | 0.00 | 0.25 | 0.20 | 89 | 1007.6 |
| 20260904023504 | 58 | 0 | 0.0 | 0.0 | 0.00 | 0.25 | 0.20 | 89 | 1007.6 |
| 20260904023003 | 58 | 0 | 0.0 | 0.0 | 0.00 | 0.25 | 0.20 | 89 | 1007.6 |
| 20260904022503 | 58 | 0 | 0.0 | 0.0 | 0.00 | 0.25 | 0.20 | 89 | 1007.6 |
| 20260904022003 | 58 | 0 | 0.0 | 0.0 | 0.00 | 0.25 | 0.20 | 89 | 1007.6 |
| 20260904021503 | 58 | 0 | 0.0 | 0.0 | 0.00 | 0.25 | 0.20 | 89 | 1007.6 |
| 20260904021003 | 58 | 0 | 0.0 | 0.0 | 0.00 | 0.25 | 0.20 | 89 | 1007.6 |
| 20260904020503 | 58 | 0 | 0.0 | 0.0 | 0.00 | 0.25 | 0.20 | 89 | 1007.6 |
| 20260904020003 | 58 | 0 | 0.0 | 0.0 | 0.00 | 0.25 | 0.20 | 89 | 1007.6 |
| 20260904015503 | 58 | 0 | 0.0 | 0.0 | 0.00 | 0.25 | 0.20 | 88 | 1007.6 |
| 20260904015002 | 58 | 0 | 0.0 | 0.0 | 0.00 | 0.25 | 0.20 | 89 | 1007.6 |
| 20260904014502 | 58 | 0 | 0.0 | 0.0 | 0.00 | 0.25 | 0.20 | 89 | 1007.5 |
| 20260904014002 | 58 | 0 | 0.0 | 0.0 | 0.00 | 0.25 | 0.20 | 89 | 1007.5 |
| 20260904013523 | 58 | 0 | 0.0 | 0.0 | 0.00 | 0.26 | 0.20 | 88 | 1007.6 |
| 20260904013002 | 58 | 0 | 0.0 | 0.0 | 0.00 | 0.26 | 0.20 | 88 | 1007.6 |
| 20260904012502 | 58 | 0 | 0.0 | 0.0 | 0.00 | 0.26 | 0.20 | 88 | 1007.6 |
| 20260904012002 | 58 | 0 | 0.0 | 0.0 | 0.00 | 0.26 | 0.20 | 87 | 1007.7 |
| 20260904011502 | 58 | 0 | 0.0 | 0.0 | 0.01 | 0.26 | 0.20 | 87 | 1007.8 |
| 20260904011002 | 58 | 0 | 0.0 | 0.0 | 0.01 | 0.26 | 0.20 | 87 | 1007.9 |
| 20260904010502 | 58 | 0 | 0.0 | 0.0 | 0.01 | 0.26 | 0.20 | 86 | 1007.8 |
| 20260904010002 | 58 | 0 | 0.0 | 0.0 | 0.01 | 0.26 | 0.20 | 86 | 1007.8 |
| 20260904005502 | 57 | 0 | 0.0 | 0.0 | 0.01 | 0.26 | 0.20 | 87 | 1007.9 |
| 20260904005002 | 57 | 0 | 0.0 | 0.0 | 0.01 | 0.26 | 0.20 | 87 | 1007.8 |
| 20260904004502 | 57 | 0 | 0.0 | 0.0 | 0.01 | 0.26 | 0.20 | 87 | 1007.9 |
| 20260904004023 | 57 | 0 | 0.0 | 0.0 | 0.01 | 0.26 | 0.20 | 88 | 1007.9 |
| 20260904003502 | 57 | 0 | 0.0 | 0.0 | 0.01 | 0.26 | 0.20 | 87 | 1007.8 |
| 20260904003023 | 57 | 222 | 0.0 | 1.0 | 0.01 | 0.26 | 0.20 | 86 | 1007.7 |
| 20260904002502 | 57 | 222 | 0.0 | 1.0 | 0.01 | 0.26 | 0.20 | 85 | 1007.7 |
| 20260904002023 | 57 | 0 | 0.0 | 0.0 | 0.01 | 0.26 | 0.20 | 86 | 1007.7 |
| 20260904001502 | 57 | 0 | 0.0 | 0.0 | 0.00 | 0.25 | 0.19 | 86 | 1007.8 |
| 20260904001002 | 57 | 0 | 0.0 | 0.0 | 0.00 | 0.25 | 0.19 | 85 | 1007.8 |
| 20260904000502 | 58 | 109 | 0.0 | 2.0 | 0.00 | 0.25 | 0.19 | 85 | 1007.9 |
| 20260904000002 | 58 | 113 | 0.0 | 4.0 | 0.00 | 0.25 | 0.19 | 85 | 1008.0 |
| 20260903235502 | 58 | 170 | 0.0 | 4.0 | 0.01 | 0.25 | 0.19 | 86 | 1008.1 |
| 20260903235002 | 57 | 195 | 0.0 | 4.0 | 0.02 | 0.26 | 0.19 | 87 | 1008.1 |
| 20260903234502 | 57 | 149 | 1.0 | 4.0 | 0.02 | 0.26 | 0.19 | 90 | 1008.0 |
| 20260903234002 | 56 | 128 | 1.0 | 4.0 | 0.03 | 0.27 | 0.19 | 91 | 1008.0 |
| 20260903233502 | 56 | 107 | 1.0 | 3.0 | 0.03 | 0.29 | 0.19 | 91 | 1007.9 |
| 20260903233002 | 56 | 106 | 1.0 | 3.0 | 0.03 | 0.35 | 0.19 | 91 | 1008.0 |
| 20260903232502 | 56 | 99 | 1.0 | 3.0 | 0.03 | 0.41 | 0.19 | 90 | 1007.9 |
| 20260903232002 | 56 | 87 | 1.0 | 3.0 | 0.03 | 0.45 | 0.19 | 90 | 1008.0 |
| 20260903231502 | 56 | 96 | 1.0 | 4.0 | 0.03 | 0.47 | 0.19 | 89 | 1008.1 |
| 20260903231002 | 56 | 93 | 1.0 | 4.0 | 0.03 | 0.47 | 0.19 | 89 | 1008.2 |
| 20260903230502 | 56 | 97 | 1.0 | 2.0 | 0.03 | 0.47 | 0.19 | 88 | 1008.2 |
| 20260903230002 | 56 | 168 | 1.0 | 4.0 | 0.03 | 0.47 | 0.19 | 87 | 1008.3 |
| 20260903225502 | 56 | 185 | 1.0 | 4.0 | 0.02 | 0.46 | 0.18 | 85 | 1008.5 |
| 20260903225002 | 57 | 190 | 1.0 | 4.0 | 0.01 | 0.45 | 0.18 | 85 | 1008.5 |
| 20260903224502 | 57 | 202 | 1.0 | 6.0 | 0.01 | 0.45 | 0.17 | 83 | 1008.5 |
| 20260903224002 | 58 | 201 | 1.0 | 6.0 | 0.00 | 0.44 | 0.16 | 83 | 1008.5 |
| 20260903223502 | 58 | 192 | 1.0 | 9.0 | 0.00 | 0.44 | 0.16 | 83 | 1008.4 |
| 20260903223002 | 59 | 204 | 2.0 | 10.0 | 0.00 | 0.44 | 0.16 | 81 | 1008.4 |
| 20260903222502 | 59 | 217 | 4.0 | 10.0 | 0.00 | 0.44 | 0.16 | 80 | 1008.4 |
| 20260903222002 | 60 | 225 | 3.0 | 9.0 | 0.00 | 0.44 | 0.16 | 76 | 1008.2 |
| 20260903221502 | 61 | 219 | 1.0 | 7.0 | 0.00 | 0.44 | 0.16 | 75 | 1008.1 |
| 20260903221002 | 62 | 207 | 1.0 | 2.0 | 0.00 | 0.44 | 0.16 | 73 | 1008.1 |
| 20260903220502 | 62 | 205 | 1.0 | 2.0 | 0.00 | 0.44 | 0.16 | 72 | 1008.0 |
| 20260903220002 | 62 | 156 | 1.0 | 2.0 | 0.00 | 0.44 | 0.16 | 72 | 1008.0 |
| 20260903215502 | 62 | 172 | 1.0 | 2.0 | 0.00 | 0.44 | 0.16 | 72 | 1008.0 |
| 20260903215002 | 62 | 203 | 1.0 | 2.0 | 0.00 | 0.44 | 0.16 | 74 | 1008.0 |
| 20260903214503 | 62 | 173 | 0.0 | 2.0 | 0.00 | 0.44 | 0.16 | 75 | 1008.0 |
| 20260903214002 | 61 | 184 | 0.0 | 2.0 | 0.00 | 0.45 | 0.16 | 80 | 1008.0 |
| 20260903213523 | 61 | 181 | 1.0 | 2.0 | 0.00 | 0.45 | 0.16 | 79 | 1008.0 |
| 20260903213002 | 60 | 137 | 0.0 | 3.0 | 0.00 | 0.45 | 0.16 | 80 | 1008.1 |
| 20260903212502 | 60 | 126 | 0.0 | 4.0 | 0.00 | 0.45 | 0.16 | 81 | 1008.2 |
| 20260903212002 | 60 | 144 | 0.0 | 4.0 | 0.00 | 0.45 | 0.16 | 80 | 1008.3 |
| 20260903211502 | 60 | 166 | 1.0 | 1.0 | 0.00 | 0.45 | 0.16 | 80 | 1008.3 |
| 20260903211002 | 60 | 147 | 1.0 | 2.0 | 0.00 | 0.45 | 0.16 | 79 | 1008.3 |
| 20260903210502 | 60 | 127 | 1.0 | 3.0 | 0.00 | 0.45 | 0.16 | 79 | 1008.3 |